Annapolis, MD

10:46 AM EST on December 07, 2016 (GMT -0500)
Annapolis Naval Academy

Weather History for KNAK - March, 2014

Change the Weather History Date:

Saturday, March 8, 2014

  Actual Average (KBWI) Record (KBWI)
Temperature  
Mean Temperature 44 °F 41 °F  
Max Temperature 57 °F 51 °F 83 °F (2000)
Min Temperature 30 °F 31 °F 10 °F (1960)
Degree Days  
Heating Degree Days 22 24  
Month to date heating degree days 200  
Since 1 July heating degree days 3795  
Cooling Degree Days 0 0  
Month to date cooling degree days 0  
Year to date cooling degree days 0  
Moisture  
Dew Point 32 °F    
Average Humidity 67    
Maximum Humidity 89    
Minimum Humidity 39    
Precipitation  
Precipitation 0.00 in 0.12 in 1.88 in (1995)
Month to date precipitation 0.90  
Year to date precipitation 6.85  
Snow  
Snow 0.00 in 0.10 in 6.00 in (1934)
Month to date snowfall 0.9  
Since 1 July snowfall 19.1  
Snow Depth -    
Sea Level Pressure  
Sea Level Pressure 29.93 in    
Wind  
Wind Speed 5 mph (WNW)    
Max Wind Speed 13 mph    
Max Gust Speed -    
Visibility 10 miles    
Events      
T = Trace of Precipitation, MM = Missing Value Source: NWS Daily Summary

Daily Weather History Graph

Daily Weather History Graph

Search for Another Location

Airport or City:

Trip Planner

Search our weather history database for the weather conditions in past years. The results will help you decide how hot, cold, wet, or windy it might be!

Date:

Astronomy

Mar. 08, 2014 Rise Set
Actual Time 6:28 AM EST 6:05 PM EST
Civil Twilight 6:01 AM EST 6:32 PM EST
Nautical Twilight 5:30 AM EST 7:03 PM EST
Astronomical Twilight 4:59 AM EST 7:34 PM EST
Moon 11:10 AM EST (3/8) 12:58 AM EST (3/8)
Length of Visible Light 12h 31m
Length of Day
11h 37m
First Quarter, 51% of the Moon is Illuminated
Mar 8
First Quarter
Mar 16
Full
Mar 23
Last Quarter
Mar 30
New
Apr 7
First Quarter

Hourly Weather History & Observations

Time (EST) Temp. Windchill Dew Point Humidity Pressure Visibility Wind Dir Wind Speed Gust Speed Precip Events Conditions
12:54 AM 37.9 °F 33.5 °F 28.9 °F 70% 29.92 in 10.0 mi NW 5.8 mph - N/A   Overcast
1:54 AM 37.0 °F 31.6 °F 28.0 °F 70% 29.93 in 10.0 mi NW 6.9 mph - N/A   Overcast
2:54 AM 36.0 °F 31.1 °F 27.0 °F 70% 29.93 in 10.0 mi NW 5.8 mph - N/A   Overcast
3:40 AM 35.1 °F 30.1 °F 27.0 °F 72% 29.93 in 10.0 mi NW 5.8 mph - N/A   Scattered Clouds
3:54 AM 35.1 °F 31.0 °F 27.0 °F 72% 29.94 in 10.0 mi WNW 4.6 mph - N/A   Clear
4:54 AM 33.1 °F - 27.0 °F 78% 29.94 in 10.0 mi Calm Calm - N/A   Clear
5:54 AM 30.9 °F - 26.1 °F 82% 29.95 in 10.0 mi Calm Calm - N/A   Clear
6:54 AM 32.0 °F - 26.1 °F 79% 29.96 in 8.0 mi Calm Calm - N/A   Clear
7:54 AM 36.0 °F 33.3 °F 27.0 °F 70% 29.97 in 7.0 mi WSW 3.5 mph - N/A   Clear
8:54 AM 39.0 °F - 28.0 °F 65% 29.97 in 7.0 mi Calm Calm - N/A   Clear
9:54 AM 48.9 °F - 30.9 °F 50% 29.96 in 10.0 mi WSW 5.8 mph - N/A   Clear
10:54 AM 53.1 °F - 33.1 °F 47% 29.95 in 10.0 mi WSW 8.1 mph - N/A   Clear
11:54 AM 55.9 °F - 33.1 °F 42% 29.94 in 10.0 mi North - - N/A   Clear
12:54 PM 55.9 °F - 32.0 °F 40% 29.91 in 10.0 mi NW 12.7 mph - N/A   Clear
1:54 PM 55.9 °F - 33.1 °F 42% 29.90 in 10.0 mi NW 10.4 mph - N/A   Clear
2:54 PM 55.9 °F - 34.0 °F 44% 29.89 in 10.0 mi NNW 8.1 mph - N/A   Clear
3:54 PM 57.9 °F - 33.1 °F 39% 29.88 in 10.0 mi NNW 6.9 mph - N/A   Clear
4:54 PM 44.1 °F 38.1 °F 37.0 °F 76% 29.88 in 10.0 mi SE 11.5 mph - N/A   Clear
5:54 PM 45.0 °F 41.2 °F 36.0 °F 71% 29.89 in 10.0 mi SE 6.9 mph - N/A   Clear
6:54 PM 43.0 °F 41.3 °F 36.0 °F 76% 29.91 in 10.0 mi SE 3.5 mph - N/A   Clear
7:54 PM 42.1 °F - 36.0 °F 79% 29.93 in 10.0 mi Calm Calm - N/A   Clear
8:54 PM 41.0 °F - 36.0 °F 82% 29.94 in 10.0 mi Calm Calm - N/A   Partly Cloudy
9:54 PM 39.9 °F - 36.0 °F 86% 29.93 in 10.0 mi Calm Calm - N/A   Mostly Cloudy
10:54 PM 41.0 °F - 36.0 °F 82% 29.92 in 10.0 mi Calm Calm - N/A   Overcast
11:54 PM 41.0 °F 37.1 °F 37.9 °F 89% 29.91 in 10.0 mi NW 5.8 mph - N/A   Overcast